Showing default

LEMUR 2 JIN-LUEN, 43182

Orbit data source: Space-Track

LEMUR 2 JIN-LUEN, 43182 is a payload satellite owned by Spire (US) in SSO that was launched on Thu, 01 Feb 2018 UTC via a SOYUZ-2-1A launch vehicle from the Vostochny Cosmodrome (VOSTO). Payload-class satellites include a variety of spacecraft equipped with specific instruments for various scientific and technological missions. These include communications satellites like Starlink; space stations such as the ISS; scientific satellites like the Hubble; Earth observation satellites from companies like Planet Labs, Umbra, and HawkEye 360; GPS; miniature CubeSats for education and research; and military/defense satellites.

Not visible in the next 10 days
Identifier
43182, 2018-014C
Orbit
SSO
Country
Flag of USUS
Related business
Manufacturer
Spire/Glasgow
Mission
Operational Commercial Com/MetRO
Bus & Motor
CUBESAT 3U, Unknown motor
Mass
4.6 kg wet, 4.6 kg dry
Launch date (UTC)
2018-02-01 (8 years ago)
Launch vehicle
SOYUZ-2-1A
Launch site
Vostochny Cosmodrome (VOSTO)
Object type
Payload
Rocket body
Debris
Shape & HBR
Box + 2 Pan, 0.5 m
Radar Cross Section
0.124 m², Small (<0.1 m²)

Expand to show TLE details & history
Last TLE update: 11 hours ago

TLE from 11 hours ago
0 LEMUR 2 JIN-LUEN
1 43182U 18014C   25309.95932996  .00071823  00000-0  13121-2 0  9994
2 43182  97.5490 227.2208 0007789  34.1045 326.0704 15.49118317426166
Epoch: 2025-11-05T23:01Z
TLE epoch observation values (Epoch: 2025-11-05T23:01:26.108Z)
Latitude
-0.00008°
Longitude
-163.56249°
Altitude
418.037 km
Speed
7.663 km/s
True Right ascension
15h 08m 52s
True Declination
0° 00' 00"
Sunlit
Object was in daylight at epoch
Visualization orbit readout
Latitude
Unknown
Longitude
Unknown
Altitude
Unknown
Speed
Unknown
Apparent Right ascension
Unknown
Apparent Declination
Unknown
Sunlit
N/A
Visualization observer readout
Local Sidereal Time
05:49:16
Azimuth
Unknown
Elevation
Unknown
Doppler factor
Unknown
Orbital elements
Apogee altitude
421.53 km
Perigee altitude
410.945 km
Semi-major axis
6,794.374 km
Eccentricity
0.00078
Inclination
97.549°
RAAN
227.2208°
Arg. of periapsis
34.1045°
True anomaly
326.02054°
Mean anomaly
326.0704°
Eccentric anomaly
326.04547°
Mean motion
3.87542 °/min
Orbital period
92.89 mins
BSTAR
0.0013121
Loading maneuver chart data...
Computing Atmospheric mass density...
Loading historical data...
Loading historical data...
Loading historical data...
Loading historical data...
Loading historical data...
Loading historical data...
Loading historical data...

Documentation

Showing up to 5 results
|